Location: LDNL
(36.4545°S, 141.6685°E)
Time: 09:44:06
(UTC+11:00)

Hubble Space Telescope - Visible Passes

Search period start: 05 October 2023 00:00
Search period end: 15 October 2023 00:00
Orbit: 521 x 525 km, 28.5° (Epoch: 04 October)

Date Brightness Start Highest point End Pass type
(mag) Time Alt. Az. Time Alt. Az. Time Alt. Az.
10 Oct 3.3 06:29:34 10° N 06:30:59 12° NNE 06:32:23 10° NE visible
11 Oct 3.1 06:13:15 10° N 06:15:14 13° NNE 06:17:13 10° NE visible
12 Oct 3.0 05:57:07 10° NNW 05:59:28 15° NNE 06:01:50 10° NE visible
13 Oct 2.8 05:41:46 13° NNW 05:43:43 17° NNE 05:46:21 10° NE visible
14 Oct 2.6 05:26:53 17° N 05:27:56 18° NNE 05:30:47 10° ENE visible
